#timestamp,LO_Frequency,Hit,StdDev 
1512205215.7,286046995.1,N
1512205235.6,286047000.0,N
1512205255.4,286047003.1,N
1512205275.2,286047007.0,N
1512205295.1,286047007.1,N
1512205296.0,286047007.1,N
1512205315.8,286047006.7,N
1512205335.6,286047010.8,N
1512205355.5,286047007.6,N
1512205375.3,286047002.4,N
1512205395.1,286047001.0,N
1512205415.9,286047000.5,N
1512205435.7,286046997.3,N
1512205455.5,286046999.1,N
1512205475.3,286046999.9,N
1512205495.2,286046998.7,N
1512205515.0,286046998.5,N
1512205515.9,286046998.5,N
1512205535.7,286046998.4,N
1512205555.6,286047001.3,N
1512205575.4,286047003.1,N
1512205595.2,286047001.4,N
1512205615.1,286047000.9,N
1512205616.0,286047000.9,N
1512205635.8,286046998.2,N
1512205655.6,286047000.7,N
1512205675.5,286046998.4,N
1512205695.3,286047002.0,N
1512205715.1,286046998.1,N
1512205735.9,286047001.0,N
1512205755.7,286046998.2,N
1512205775.5,286046999.0,N
1512205795.3,286046996.5,N
1512205815.2,286046997.3,N
1512205835.0,286046997.3,N
1512205835.9,286046997.3,N
1512205855.7,286046993.4,N
1512205875.6,286046996.1,N
1512205895.4,286046994.2,N
1512205915.2,286046994.0,N
1512205935.1,286046993.3,N
1512205936.0,286046993.3,N
1512205955.8,286046991.0,Y
1512205975.6,286046991.1,P
1512205995.5,286046987.0,P
1512206015.3,286046988.2,N
1512206035.1,286046988.1,N
1512206055.9,286046987.6,Y
1512206075.7,286046999.5,P
1512206095.5,286046999.5,N
1512206115.4,286046997.7,N
1512206135.2,286046999.2,N
1512206155.0,286046998.8,N
1512206155.9,286046998.8,N
1512206175.8,286047000.0,N
1512206195.6,286047000.8,N
1512206215.4,286046998.8,N
1512206235.3,286046997.6,N
1512206255.1,286046996.9,N
1512206256.0,286046996.9,N
1512206275.8,286047001.7,N
1512206295.7,286047003.4,N
1512206315.5,286047004.1,N
1512206335.3,286047004.2,N
1512206355.1,286047005.3,N
1512206375.9,286047005.1,N
1512206395.7,286047000.3,N
1512206415.5,286047000.8,N
1512206435.4,286046996.8,N
1512206455.2,286046996.4,N
1512206475.0,286046996.8,N
1512206475.9,286046996.8,N
1512206495.8,286046997.3,N
1512206515.6,286046997.9,N
1512206535.4,286046997.0,N
1512206555.3,286046998.5,N
1512206575.1,286047000.8,N
1512206576.0,286047000.8,N
1512206595.8,286047001.0,N
1512206615.7,286047002.7,N
1512206635.5,286047004.4,N
1512206655.3,286047004.0,N
1512206675.1,286047003.6,N
1512206695.9,286047003.6,N
1512206715.7,286047007.2,N
1512206735.5,286047006.3,N
1512206755.4,286047011.8,Y
1512206775.2,286047008.3,P
1512206795.0,286047008.6,N
1512206795.9,286047008.6,N
1512206815.8,286047008.3,N
1512206835.6,286047008.9,N
1512206855.4,286047012.0,Y
1512206875.3,286047004.1,P
1512206895.1,286047004.0,N
1512206915.8,286047003.5,N
1512206935.7,286047006.0,Y
1512206955.5,286046998.2,P
1512206975.3,286046998.2,N
1512206995.2,286046999.9,N
1512207015.9,286047002.2,N
1512207035.7,286047002.0,N
1512207055.6,286047005.6,N
1512207075.4,286047007.5,N
1512207095.2,286047003.9,N
1512207115.1,286047001.8,N
1512207116.0,286047001.8,N
1512207135.8,286047007.3,N
1512207155.6,286047005.5,N
1512207175.5,286047003.9,N
1512207195.3,286047005.2,N
1512207215.1,286047007.6,N
1512207235.8,286047004.2,N
1512207255.7,286047004.0,N
1512207275.5,286047003.8,N
1512207295.3,286046998.1,N
1512207315.2,286046998.1,N
1512207335.9,286046998.6,N
1512207355.7,286047001.1,N
1512207375.6,286047000.7,N
1512207395.4,286046999.9,N
1512207415.2,286047003.5,N
1512207435.1,286047007.0,N
1512207436.0,286047007.0,N
1512207455.8,286047009.2,N
1512207475.6,286047009.6,N
1512207495.4,286047006.6,N
1512207515.3,286047006.8,N
1512207535.1,286047010.5,Y
1512207555.9,286047007.3,P
1512207575.7,286047008.2,P
1512207595.5,286047011.9,P
1512207615.4,286047015.0,Y
1512207635.2,286047010.7,P
1512207655.0,286047007.4,P
1512207655.9,286047007.4,P
1512207675.8,286047006.3,Y
1512207695.6,286046998.8,P
1512207715.4,286046998.8,N
1512207735.2,286046997.6,N
1512207755.1,286046995.4,N
1512207756.0,286046995.4,N
1512207775.8,286046996.1,N
1512207795.6,286046997.5,N
1512207815.5,286046995.3,N
1512207835.3,286046994.9,N
1512207855.1,286046997.5,N
1512207875.9,286046995.1,N
1512207895.7,286046997.8,N
1512207915.5,286046993.8,N
1512207935.4,286046995.6,N
1512207955.2,286046996.9,N
1512207975.0,286046995.5,N
1512207975.9,286046995.5,N
1512207995.8,286046992.8,N
1512208015.6,286046991.0,N
1512208035.4,286046992.7,N
1512208055.2,286046994.7,N
1512208075.1,286046991.8,N
1512208076.0,286046991.8,N
1512208095.8,286046992.4,N
1512208115.6,286046988.9,Y
1512208135.5,286046993.0,P
1512208155.3,286046989.9,P
1512208175.1,286046990.3,P
1512208195.9,286046989.7,Y
1512208215.7,286046999.4,P
1512208235.5,286046996.9,N
1512208255.4,286047001.1,N
1512208275.2,286047001.9,N
1512208295.0,286047001.7,N
1512208295.9,286047001.7,N
1512208315.8,286047003.8,N
1512208335.6,286047001.4,N
1512208355.4,286047003.4,N
1512208375.3,286047007.6,N
1512208395.1,286047006.3,N
1512208396.0,286047006.3,N
1512208415.8,286047008.1,N
1512208435.7,286047007.8,N
1512208455.5,286047008.5,N
1512208475.3,286047008.9,N
1512208495.1,286047007.7,N
1512208515.9,286047006.4,N
1512208535.7,286047011.3,N
1512208555.5,286047013.2,N
1512208575.4,286047014.7,Y
1512208595.2,286047015.4,P
1512208615.0,286047017.1,P
1512208615.9,286047017.1,P
1512208635.8,286047015.2,N
1512208655.6,286047014.0,N
1512208675.4,286047013.6,Y
1512208695.3,286046996.7,P
1512208715.1,286046999.5,N
1512208735.8,286046999.0,N
1512208755.7,286046997.1,N
1512208775.5,286047001.1,N
1512208795.3,286046998.1,N
